Вернуться в каталог

OPS 9331

IDSCS 16

АктивенВоенныеMEO
NORAD 2862·PAYLOAD·🇺🇸 United States

Запущен Jul 1, 1967 с Cape Canaveral Space Force Station

Loading…

Ближайшие Пролёты (ближайшие 24 часа)

TLE

СвежийSource: Space-Track

Эпоха: Sep 14, 2026, 01:32 UTC

1 02862U 67066A   26257.06447670 -.00000091  00000-0  00000-0 0  9990
2 02862   3.0686  92.5861 0061408 250.5179 333.8349  1.09955616138177

Отслеживайте OPS 9331 в реальном времени с AllMySat

Download on the App Store